OneWeb SL0149

operational
NORAD ID: 48058 Int'l Des: 2021-025 Owner: ONEWEBN Country: UK Constellation: oneweb
LEOCIRCULARPOLARONEWEB_TYPE

About OneWeb SL0149

Description loading...

Live Position

Loading 3D Globe...

Upcoming Passes

Altitude History

Altitude vs Time

uPlot chart will show altitude changes over time

Two-Line Element Set

1 48058U 21025S 25304.62599814 .00000319 00000-0 83753-3 0 9995
2 48058 87.9036 5.6409 0001703 94.9853 265.1470 13.13471032223482
Epoch: Oct 31, 2025 • Age: 12 hours

Current Status

Altitude 1235.3 km
Velocity 7.24 km/s
Sub-Earth Point -63.32°S, 91.8°W
Launch Date Mar 25, 2021
Age 4.6 years
Type internet

Technical Details

Classification Payload
Mass 148.00 kg
Dry Mass 140.00 kg
Total Mass 148.00 kg
Length 1.30 m
Diameter 1.00 m
Span 5.00 m
Shape Trapezoid+2 pan
Manufacturer ONEWUS
Bus Type ARROW
Phase Status In Orbit
Owner/State ONEWEBN/UK

Large Constellations

Loading constellations...